[[{"header":{"parameterUnit":"m.s-1","parameterCategory":1,"la1":30.2992,"la2":30.254,"lo1":-89.0895,"lo2":-89.0443,"dy":0.0025,"dx":0.0025,"nx":19,"ny":19,"refTime":"2026-03-24T03:00:00:Z","depth":0,"parameterNumber":2,"parameterNumberName":"U-component_of_WINDS"},"data":[0,0,0,-2.295,-2.2951,-2.3021,-2.3021,-2.312,-2.3121,0,0,0,0,0,0,0,0,0,0,0,-2.2934,-2.2935,-2.2949,-2.2951,-2.3021,-2.3021,-2.312,-2.3121,0,0,0,0,0,0,0,0,0,0,0,-2.2934,-2.2935,-2.2936,-2.2952,-2.3021,-2.3021,-2.312,-2.3064,0,0,0,0,0,0,0,0,0,0,-2.2995,-2.2985,-2.2934,-2.2936,-2.2952,-2.302,-2.3021,-2.3061,-2.3068,-2.3093,0,-2.3116,0,-2.312,-2.3129,-2.3129,0,0,0,-2.2948,-2.298,-2.2994,-2.2936,-2.2953,-2.302,-2.2988,-2.3065,-2.3072,-2.3102,-2.3117,-2.3121,-2.3122,-2.3129,-2.313,-2.3288,-2.3289,0,0,-2.2944,-2.2949,-2.2989,-2.2999,-2.2987,-2.2986,-2.2991,-2.3069,-2.3087,-2.3118,-2.3123,-2.3124,-2.313,-2.3131,-2.3287,-2.3288,0,0,0,-2.2935,-2.2947,-2.2959,-2.2995,-2.3007,-2.2988,-2.2993,-2.3083,-2.3087,-2.3124,-2.3125,-2.3131,-2.3132,-2.3286,-2.3287,-2.3336,0,0,0,-2.2933,-2.2942,-2.2957,-2.2961,-2.3005,-2.3045,-2.3006,-2.3081,-2.309,-2.3124,-2.3131,-2.3133,-2.3285,-2.3287,-2.3333,-2.3358,0,0,0,-2.2928,-2.2941,-2.2953,-2.2961,-2.2991,-2.3044,-2.3052,-2.3083,-2.3091,-2.3129,-2.3133,-2.3284,-2.3286,-2.333,-2.3353,-2.3402,0,0,0,-2.2924,-2.2995,-2.2953,-2.3033,-2.2991,-2.3074,-2.3051,-2.3113,-2.3152,-2.3131,-2.3285,-2.3287,-2.3329,-2.335,-2.3399,-2.3443,-2.3462,0,0,-2.3016,-2.3006,-2.3053,-2.3018,-2.311,-2.3063,-2.3163,-2.3193,-2.3193,-2.3257,-2.326,-2.3334,-2.3353,-2.3401,-2.3569,-2.3584,0,0,0,-2.3084,-2.3117,-2.3141,-2.3178,-2.3204,-2.3228,-2.3244,-2.3256,-2.331,-2.3226,-2.3365,-2.3376,-2.3404,-2.3425,-2.3438,-2.3463,-2.3297,-2.3297,-2.3297,-2.322,-2.3216,-2.3294,-2.3299,-2.3336,-2.3353,-2.3383,-2.3403,-2.3387,-2.3421,-2.3439,-2.3541,-2.3566,-2.3576,-2.3601,-2.3463,-2.3463,-2.3463,-2.3463,-2.3355,-2.3402,-2.3382,-2.345,-2.3447,-2.3505,-2.3525,-2.3513,-2.3568,-2.3526,-2.3551,-2.3505,-2.3592,-2.3615,-2.3467,-2.3466,-2.3466,-2.3466,-2.3465,-2.3443,-2.3465,-2.3479,-2.3534,-2.3578,-2.3583,-2.3637,-2.3632,-2.3628,-2.3652,-2.3672,-2.3671,-2.367,-2.3662,-2.3663,-2.3663,-2.3663,-2.3664,-2.3664,-2.3528,-2.3542,-2.3588,-2.3624,-2.3648,-2.3681,-2.3701,-2.3726,-2.3753,-2.3745,-2.3745,-2.3728,-2.3602,-2.357,-2.3669,-2.3668,-2.3668,-2.3667,-2.3667,-2.3664,-2.3633,-2.3703,-2.3728,-2.3771,-2.3817,-2.3811,-2.3863,-2.3883,-2.3911,-2.389,-2.3797,-2.3786,-2.3776,-2.3749,-2.3889,-2.3889,-2.3889,-2.3889,-2.3738,-2.3733,-2.3804,-2.3845,-2.3885,-2.3888,-2.397,-2.3989,-2.4003,-2.4016,-2.3995,-2.396,-2.395,-2.3945,-2.3931,-2.3907,-2.4083,-2.4083,-2.4084,-2.3822,-2.3821,-2.389,-2.3902,-2.3937,-2.3968,-2.4045,-2.4095,-2.4105,-2.4091,-2.4026,-2.4018,-2.3961,-2.3943,-2.3926,-2.3904,-2.3858,0,0]},{"header":{"parameterUnit":"m.s-1","parameterCategory":1,"la1":30.2992,"la2":30.254,"lo1":-89.0895,"lo2":-89.0443,"dy":0.0025,"dx":0.0025,"nx":19,"ny":19,"refTime":"2026-03-24T03:00:00:Z","depth":0,"parameterNumber":3,"parameterNumberName":"V-component_of_WINDS"},"data":[0,0,0,2.2913,2.2912,2.2893,2.2893,2.286,2.286,0,0,0,0,0,0,0,0,0,0,0,2.2916,2.2915,2.2913,2.2912,2.2893,2.2893,2.286,2.286,0,0,0,0,0,0,0,0,0,0,0,2.2916,2.2915,2.2915,2.2912,2.2893,2.2893,2.286,2.2877,0,0,0,0,0,0,0,0,0,0,2.2897,2.2897,2.2915,2.2915,2.2912,2.2893,2.2893,2.2878,2.2876,2.2866,0,2.2858,0,2.2858,2.2857,2.2857,0,0,0,2.2914,2.2899,2.2897,2.2915,2.2912,2.2893,2.2902,2.2877,2.2875,2.2863,2.2858,2.2857,2.2858,2.2857,2.2857,2.2799,2.2799,0,0,2.2915,2.291,2.2898,2.2895,2.29,2.2903,2.2901,2.2876,2.2868,2.2858,2.2856,2.2857,2.2857,2.2856,2.2799,2.2799,0,0,0,2.2917,2.291,2.2909,2.2896,2.2894,2.2902,2.2901,2.2869,2.287,2.2856,2.2857,2.2856,2.2856,2.28,2.2799,2.2778,0,0,0,2.2918,2.2912,2.2909,2.2906,2.2894,2.2882,2.2895,2.2871,2.2869,2.2857,2.2856,2.2856,2.28,2.28,2.278,2.2768,0,0,0,2.2918,2.2912,2.2908,2.2906,2.2898,2.2882,2.2881,2.2871,2.2869,2.2857,2.2855,2.28,2.28,2.2781,2.277,2.2752,0,0,0,2.2916,2.2888,2.2908,2.2878,2.2898,2.287,2.2881,2.286,2.2847,2.2856,2.28,2.2799,2.2781,2.2772,2.2753,2.2735,2.2728,0,0,2.2878,2.2884,2.2866,2.2883,2.2851,2.2874,2.2838,2.2829,2.2831,2.2809,2.2808,2.2779,2.2771,2.2752,2.2687,2.2681,0,0,0,2.2853,2.284,2.2833,2.2821,2.2816,2.281,2.2809,2.2806,2.2788,2.282,2.2768,2.2763,2.2752,2.2744,2.2739,2.273,2.2795,2.2796,2.2796,2.2791,2.2798,2.2769,2.2774,2.2763,2.2762,2.2753,2.2749,2.2757,2.2745,2.2738,2.2698,2.2688,2.2684,2.2675,2.273,2.273,2.2729,2.2729,2.2736,2.2719,2.2733,2.2711,2.2718,2.2699,2.2697,2.2704,2.2686,2.2703,2.2694,2.2712,2.2677,2.2669,2.2728,2.2728,2.2728,2.2729,2.2729,2.2695,2.2688,2.2687,2.2673,2.266,2.2665,2.2649,2.2655,2.266,2.2652,2.2645,2.2645,2.2646,2.2648,2.2648,2.2648,2.2648,2.2648,2.2648,2.2653,2.2653,2.2639,2.2632,2.2627,2.262,2.262,2.2614,2.2609,2.2614,2.2614,2.2623,2.2673,2.2685,2.2646,2.2646,2.2646,2.2647,2.2647,2.2593,2.2608,2.2587,2.2581,2.2575,2.2562,2.2572,2.2559,2.2555,2.2546,2.2558,2.2594,2.2599,2.2603,2.2613,2.2557,2.2557,2.2557,2.2557,2.2558,2.2563,2.2543,2.2534,2.2525,2.2532,2.2506,2.2507,2.2509,2.2507,2.2516,2.253,2.2534,2.2537,2.2542,2.2551,2.2481,2.2481,2.2481,2.2522,2.2526,2.2503,2.2508,2.2504,2.25,2.2475,2.2463,2.2469,2.2478,2.2505,2.2508,2.2531,2.2538,2.2546,2.2555,2.2572,0,0]}]]